P/2022 B1 ( Wierzchos )

Japanese version
Home page
Updated on May 29, 2022

---------------------------------------------------------------------

* Profile

Discovery Date January 25, 2022
Magnitude 19.8 mag
Discoverer K. W. Wierzchos (Mt. Lemmon)

* Orbital Elements

Epoch 2022 Jan. 21.0 TT = JDT 2459600.5
T 2022 Feb. 25.33902 TT                                 Rudenko
q   1.8967083            (2000.0)            P               Q
n   0.07718070     Peri.  325.48155     -0.41739224     -0.90335907
a   5.4634071      Node   148.84996     +0.87080178     -0.42863577
e   0.6528342      Incl.   10.99088     +0.25978447     -0.01462089
P  12.8
From 76 observations 2021 Oct. 30-2022 Feb. 9, mean residual 0".5.

* Magnitudes Graph

        m1 = 16.5 + 5 log d + 10.0 log r

---------------------------------------------------------------------

The orbital elements are published on M.P.E.C. 2022-K19.
The magnitudes graphs are made with Comet for Windows.

---------------------------------------------------------------------

Copyright(C) Seiichi Yoshida (comet@aerith.net). All rights reserved.